Location: Milevsko
(49.4500°N, 14.3670°E)
Time: 09:31:09
(UTC+02:00)

ISS - Pass Details

Date: 20 July 2018
Orbit: 402 x 408 km, 51.6° (Epoch: 17 July)

Event Time Altitude Azimuth Distance (km) Brightness Sun altitude
Rises 22:09:21 0° 217° (SW) 2,309 -0.1 -9.5°
Reaches altitude 10° 22:11:35 10° 205° (SSW) 1,455 -1.2 -9.7°
Maximum altitude 22:14:25 27° 145° (SE) 804 -2.9 -10.0°
Drops below altitude 10° 22:17:16 10° 85° (E) 1,465 -1.3 -10.3°
Sets 22:19:32 0° 73° (ENE) 2,329 -0.2 -10.6°
